Terminal Aerodrome Forecast
Issued by NWS Charleston, WV

Current Version | Previous Version | Graphics & Text | Print | Product List | Glossary On
Versions: 1 2 3 4 5 6 7 8 9 10 11 12 13 14 15 16 17 18 19 20 21 22 23 24 25 26 27 28 29
000
FTUS41 KRLX 131120
TAFEKN
TAF
KEKN 131120Z 1312/1412 28008G15KT P6SM SCT015 OVC025
      TEMPO 1312/1313 2SM -SN
     FM131400 28010G20KT P6SM BKN045
     FM131600 25009G15KT P6SM SCT050
     FM140400 23010G23KT 6SM -SN OVC035
     FM140800 26013G28KT 3SM -SN OVC015=

USA.gov is the U.S. government's official web portal to all federal, state and local government web resources and services.